Skip Page Navigation
NASA JPL Caltech
NASA Logo - Jet Propulsion Laboratory + View the NASA Portal
+ Center for Near-Earth Object Studies
JPL Home Earth Solar System Stars & Galaxies Technology
JPL Solar System Dynamics
BODIES ORBITS EPHEMERIDES TOOLS PHYSICAL DATA DISCOVERY FAQ SITE MAP
JPL Small-Body Database Browser
Search: [ help ]  
362237 (2009 KP1)
Classification: Main-belt Asteroid          SPK-ID: 2362237
Ephemeris | Orbit Diagram | Orbital Elements | Mission Design | Physical Parameters | Discovery Circumstances ]

[ show orbit diagram ]
Orbital Elements at Epoch 2459200.5 (2020-Dec-17.0) TDB
Reference: JPL 19 (heliocentric ecliptic J2000)
 Element Value Uncertainty (1-sigma)   Units 
e .2415360277653622 4.8464e-08  
a 2.596261534997474 2.8502e-08 au
q 1.969170836794182 1.2728e-07 au
i 11.88368546390767 6.5122e-06 deg
node 65.32588375877745 3.0605e-05 deg
peri 249.9064977890231 3.5103e-05 deg
M 224.171142726687 2.0194e-05 deg
tp 2459777.015026943885
(2022-Jul-16.51502694)
8.9845e-05 TDB
period 1527.992017794706
4.18
2.5161e-05
6.889e-08
d
yr
n .2356033250223221 3.8797e-09 deg/d
Q 3.223352233200766 3.5386e-08 au
  Orbit Determination Parameters
   # obs. used (total)      240  
   data-arc span      5251 days (14.38 yr)  
   first obs. used      2006-11-20  
   last obs. used      2021-04-06  
   planetary ephem.      DE441  
   SB-pert. ephem.      SB441-N16  
   condition code      0  
   norm. resid. RMS      .67106  
   source      ORB  
   producer      Otto Matic  
   solution date      2021-May-04 12:18:10  

Additional Information
 Earth MOID = .990248 au 
 Jupiter MOID = 2.17044 au 
 T_jup = 3.346 
[ show covariance matrix ]

Ephemeris | Orbit Diagram | Orbital Elements | Mission Design | Physical Parameters | Discovery Circumstances ]

Physical Parameter Table
Parameter Symbol Value Units Sigma Reference Notes
absolute magnitude H 16.83   n/a E2021B25  

362237 (2009 KP1)          Discovered 2009-Apr-30 by Spacewatch at Kitt Peak
Reference: Last Updated: 2013-04-29
Ephemeris | Orbit Diagram | Orbital Elements | Mission Design | Physical Parameters | Discovery Circumstances ]
ABOUT SSD CREDITS/AWARDS PRIVACY/COPYRIGHT GLOSSARY LINKS
FirstGov 2021-Jun-23 01:00 UT
(server date/time)  
NASA Home Page
Site Manager:   Ryan S. Park
Webmaster  Alan B. Chamberlin